Weather History for Nouasseur, Morocco

Change the Weather History Date:

Friday, February 14, 2014

  Actual Average Record
Temperature  
Mean Temperature 58 °F -  
Max Temperature 69 °F 66 °F 78 °F (1998)
Min Temperature 47 °F 44 °F 28 °F (2012)
Degree Days  
Heating Degree Days 7    
Growing Degree Days 8 (Base 50)    
Moisture  
Dew Point 52 °F    
Average Humidity 81    
Maximum Humidity 100    
Minimum Humidity 50    
Precipitation  
Precipitation 0.00 in - - ()
Sea Level Pressure  
Sea Level Pressure 30.10 in    
Wind  
Wind Speed 8 mph ()    
Max Wind Speed 17 mph    
Max Gust Speed -    
Visibility 4.8 miles    
Events Fog    
Averages and records for this station are not official NWS values.
T = Trace of Precipitation, MM = Missing Value Source: Averaged Metar Reports

Daily Weather History Graph

Daily Weather History Graph

Search for Another Location

Airport:

Trip Planner

Search our weather history database for the weather conditions in past years. The results will help you decide how hot, cold, wet, or windy it might be!

Date:

Astronomy

Feb. 14, 2014 Rise Set
Actual Time 7:15 AM WET 6:14 PM WET
Civil Twilight 6:50 AM WET 6:39 PM WET
Nautical Twilight 6:20 AM WET 7:08 PM WET
Astronomical Twilight 5:51 AM WET 7:37 PM WET
Moon 6:03 PM WET (2/14) 6:35 AM WET (2/14)
Length of Visible Light 11h 49m
Length of Day
10h 58m
Full, 100% of the Moon is Illuminated
Feb 14
Full
Feb 14
Full
Feb 22
Last Quarter
Mar 1
New
Mar 8
First Quarter

Hourly Weather History & Observations

Time (WET) Temp. Dew Point Humidity Pressure Visibility Wind Dir Wind Speed Gust Speed Precip Events Conditions
12:00 AM 57 °F 56 °F 93% 30.23 in 2 mi East 6.9 mph - -   Mist
12:00 AM 57.2 °F 55.4 °F 94% 30.21 in - East 5.8 mph - N/A   Mostly Cloudy
12:13 AM 57.2 °F 55.4 °F 94% 30.21 in 0.5 mi SE 6.9 mph - N/A Fog Fog
12:30 AM 57.2 °F 55.4 °F 94% 30.21 in 0.5 mi SE 6.9 mph - N/A Fog Fog
1:00 AM 55.4 °F 55.4 °F 100% 30.18 in 0.2 mi SSE 6.9 mph - N/A Fog Fog
1:30 AM 55.4 °F 53.6 °F 94% 30.18 in 0.2 mi SSE 6.9 mph - N/A Fog Fog
2:00 AM 53.6 °F 53.6 °F 100% 30.15 in 0.2 mi SSE 5.8 mph - N/A Fog Fog
2:30 AM 51.8 °F 51.8 °F 100% 30.15 in 0.2 mi SSE 4.6 mph - N/A Fog Fog
3:00 AM 51 °F 51 °F 98% 30.17 in 0 mi SE 4.6 mph - - Fog Fog
3:00 AM 51.8 °F 50.0 °F 94% 30.15 in 0.3 mi SE 4.6 mph - N/A Fog Fog
3:30 AM 50.0 °F 50.0 °F 100% 30.12 in 0.6 mi SE 4.6 mph - N/A Fog Fog
3:48 AM 50.0 °F 50.0 °F 100% 30.12 in 2.2 mi SSE 4.6 mph - N/A   Scattered Clouds
4:00 AM 50.0 °F 50.0 °F 100% 30.12 in - SSE 4.6 mph - N/A   Scattered Clouds
4:07 AM 50.0 °F 50.0 °F 100% 30.12 in 3.1 mi SSE 5.8 mph - N/A   Scattered Clouds
4:30 AM 50.0 °F 50.0 °F 100% 30.12 in 4.3 mi South 5.8 mph - N/A   Scattered Clouds
5:00 AM 51.8 °F 51.8 °F 100% 30.09 in 6.2 mi South 9.2 mph - N/A   Scattered Clouds
5:30 AM 51.8 °F 51.8 °F 100% 30.09 in 6.2 mi South 8.1 mph - N/A   Scattered Clouds
6:00 AM 53 °F 51 °F 92% 30.12 in 6 mi South 8.1 mph - -   Clear
6:00 AM 51.8 °F 51.8 °F 100% 30.09 in 6.2 mi South 8.1 mph - N/A   Scattered Clouds
6:30 AM 51.8 °F 50.0 °F 94% 30.12 in 6.2 mi South 8.1 mph - N/A   Scattered Clouds
7:00 AM 51.8 °F 50.0 °F 94% 30.12 in 6.2 mi South 8.1 mph - N/A   Scattered Clouds
7:30 AM 51.8 °F 48.2 °F 88% 30.12 in 6.2 mi South 8.1 mph - N/A   Scattered Clouds
8:00 AM 53.6 °F 50.0 °F 88% 30.12 in 6.2 mi South 8.1 mph - N/A   Scattered Clouds
8:30 AM 55.4 °F 51.8 °F 88% 30.12 in 6.2 mi South 8.1 mph - N/A   Scattered Clouds
9:00 AM 58 °F 54 °F 80% 30.14 in 6 mi SSW 9.2 mph - -   Clear
9:00 AM 59.0 °F 53.6 °F 82% 30.12 in 6.2 mi SSW 9.2 mph - N/A   Partly Cloudy
9:30 AM 60.8 °F 53.6 °F 77% 30.12 in 6.2 mi SW 10.4 mph - N/A   Partly Cloudy
10:00 AM 62.6 °F 53.6 °F 72% 30.15 in 6.2 mi WSW 15.0 mph - N/A   Partly Cloudy
10:30 AM 62.6 °F 55.4 °F 77% 30.15 in 6.2 mi WSW 12.7 mph - N/A   Partly Cloudy
11:00 AM 62.6 °F 53.6 °F 72% 30.15 in 6.2 mi WSW 16.1 mph - N/A   Partly Cloudy
11:30 AM 62.6 °F 55.4 °F 77% 30.15 in 6.2 mi WSW 17.3 mph - N/A   Partly Cloudy
12:00 PM 63 °F 55 °F 69% 30.14 in 6 mi West 17.3 mph - -   Scattered Clouds
12:00 PM 62.6 °F 55.4 °F 77% 30.15 in 6.2 mi West 17.3 mph - N/A   Partly Cloudy
12:30 PM 64.4 °F 55.4 °F 73% 30.12 in 6.2 mi West 17.3 mph - N/A   Partly Cloudy
1:00 PM 66.2 °F 57.2 °F 73% 30.12 in 5.6 mi West 16.1 mph - N/A   Unknown
1:30 PM 66.2 °F 57.2 °F 73% 30.09 in 6.2 mi WSW 11.5 mph - N/A   Partly Cloudy
2:00 PM 68.0 °F 55.4 °F 64% 30.09 in 6.2 mi WSW 12.7 mph - N/A   Partly Cloudy
2:30 PM 68.0 °F 55.4 °F 64% 30.06 in 6.2 mi WSW 11.5 mph - N/A   Partly Cloudy
3:00 PM 69 °F 54 °F 50% 30.06 in 6 mi SW 12.7 mph - -   Scattered Clouds
3:00 PM 68.0 °F 53.6 °F 60% 30.06 in 6.2 mi SW 12.7 mph - N/A   Partly Cloudy
3:30 PM 68.0 °F 55.4 °F 64% 30.06 in 6.2 mi WSW 13.8 mph - N/A   Partly Cloudy
4:00 PM 69.8 °F 53.6 °F 56% 30.04 in 6.2 mi SW 11.5 mph - N/A   Partly Cloudy
4:30 PM 69.8 °F 53.6 °F 56% 30.04 in 6.2 mi WSW 13.8 mph - N/A   Partly Cloudy
5:00 PM 69.8 °F 55.4 °F 60% 30.04 in 6.2 mi WSW 11.5 mph - N/A   Partly Cloudy
5:30 PM 68.0 °F 55.4 °F 64% 30.04 in 6.2 mi WSW 9.2 mph - N/A   Partly Cloudy
6:00 PM 65 °F 55 °F 61% 30.03 in 6 mi West 9.2 mph - -  
6:00 PM 64.4 °F 55.4 °F 73% 30.04 in - West 9.2 mph - N/A   Clear
6:30 PM 62.6 °F 53.6 °F 72% 30.04 in - South 6.9 mph - N/A   Clear
7:00 PM 60.8 °F 50.0 °F 68% 30.04 in - SSW 9.2 mph - N/A   Clear
7:30 PM 60.8 °F 48.2 °F 63% 30.04 in - South 6.9 mph - N/A   Clear
8:00 PM 57.2 °F 48.2 °F 72% 30.04 in - SSW 9.2 mph - N/A   Clear
8:30 PM 55.4 °F 46.4 °F 72% 30.04 in - WSW 9.2 mph - N/A   Clear
9:00 PM 55 °F 46 °F 64% 30.05 in 6 mi SW 6.9 mph - -  
9:00 PM 55.4 °F 46.4 °F 72% 30.04 in - SW 6.9 mph - N/A   Clear
9:30 PM 55.4 °F 46.4 °F 72% 30.04 in - SW 6.9 mph - N/A   Clear
10:00 PM 53.6 °F 46.4 °F 77% 30.04 in - WSW 9.2 mph - N/A   Clear
10:30 PM 53.6 °F 46.4 °F 77% 30.04 in - WSW 5.8 mph - N/A   Clear
11:00 PM 53.6 °F 48.2 °F 82% 30.04 in 6.2 mi SSW 8.1 mph - N/A   Scattered Clouds
11:30 PM 53.6 °F 50.0 °F 88% 30.04 in 6.2 mi South 9.2 mph - N/A   Scattered Clouds